User: anonymous   Login
Location: Unspecified
(0.0000°N, 0.0000°E)
Time: 00:59:10
(UTC+00:00)
Language:

STARLINK-2141 - Orbit

View from above orbital plane
View from above orbital plane
View from above satellite
View from above satellite

Ground track
Ground track

The orbit is defined by the following mean orbital elements,

1 47731U          26145.41600978 +.00000000 +00000-0 +10559-2 0 00000
2 47731  53.1536 193.7813 0007764 350.8000   9.2871 15.61959451    02
Epoch (UTC): 25 May 2026 09:59:03
Eccentricity: 0.0007764
inclination: 53.1536°
perigee height: 377 km
apogee height: 387 km
right ascension of ascending node: 193.7813°
argument of perigee: 350.8000°
revolutions per day: 15.61959451
mean anomaly at epoch: 9.2871°

The dashed part of the orbit path shows where the satellite is in the earth's shadow,  

DLR